Temperature
14 14 13 13 13 13 13 13 13 13 13 13 13 13 12 12 12 12 12 12 12 12 12 12 12 12 12 12 12 11 11 11 11 11 11 11 11 11 11 10 10 10 10
13 13 13 13 13 13 13 13 13 13 13 13 12 12 12 12 12 12 12 12 12 12 12 11 11 11 11 11 11 11 11 11 11 11 11 11 10 10 10 10 10 10 10
13 13 13 13 13 13 13 13 12 12 12 12 12 12 12 12 12 12 12 12 11 11 11 11 11 11 11 11 11 11 11 11 11 10 10 10 10 10 10 10 10 10 10
13 13 13 13 13 13 12 12 12 12 12 12 12 12 12 12 11 11 11 11 11 11 11 11 11 11 11 11 11 11 11 10 10 10 10 10 10 10 10 10 9 10 9
12 12 12 12 12 12 12 12 12 12 12 12 12 12 12 11 11 11 11 11 11 11 11 11 11 11 11 11 11 11 10 10 10 10 10 10 10 10 10 9 9 9 9
12 12 12 12 12 12 12 12 11 11 11 11 11 11 11 11 11 11 11 11 11 11 10 10 10 10 11 11 11 10 10 10 10 10 10 10 10 9 9 9 9 9 9
12 11 11 11 11 11 11 11 11 11 11 11 11 11 11 11 11 11 11 10 10 10 10 10 10 10 10 10 10 10 10 10 10 10 10 10 10 9 9 9 9 9 8
11 11 11 11 11 11 11 11 11 10 11 11 11 11 10 10 10 10 10 10 10 10 10 9 9 10 10 10 10 10 10 10 9 9 9 9 9 9 9 9 8 8 8
11 10 11 11 11 10 10 10 10 10 10 10 10 10 10 10 10 10 10 9 9 9 9 9 9 9 9 9 9 9 9 9 9 9 9 9 9 9 9 8 8 8 8
10 10 10 10 10 10 10 10 10 10 10 10 10 9 9 9 9 10 9 9 9 9 9 9 9 9 9 9 9 9 9 9 9 9 9 9 8 8 8 8 8 7 7
10 9 9 10 9 9 10 10 10 10 9 9 9 9 9 9 9 9 9 9 9 9 9 9 9 9 9 9 9 8 8 8 8 8 8 8 8 8 8 8 7 7 7
9 9 9 9 9 9 9 9 9 9 9 9 9 9 9 9 9 9 9 9 8 8 8 8 8 9 9 9 8 8 8 8 8 8 7 7 7 7 7 7 7 7 7
8 8 9 9 9 9 9 9 8 8 8 8 8 8 8 8 8 8 8 8 8 8 8 8 8 8 8 8 8 8 8 8 7 7 7 7 7 7 7 7 6 6 6
8 8 8 8 8 8 8 8 8 8 8 8 8 8 8 8 8 8 8 8 8 8 7 7 7 7 7 7 7 7 7 7 7 7 6 6 6 6 6 6 6 6 6
8 8 8 8 8 8 8 7 8 8 8 8 8 8 7 7 7 7 7 7 7 7 7 7 7 7 7 7 7 7 7 7 6 6 6 6 6 6 6 6 6 6 6
8 7 7 7 7 7 7 7 7 7 7 7 7 7 7 7 7 7 7 7 7 7 6 6 7 7 6 6 6 6 6 6 6 6 5 5 5 5 5 5 5 5 5
7 7 7 7 7 7 6 6 6 6 7 7 7 7 7 7 7 7 7 6 6 6 6 6 6 6 6 6 6 6 6 6 6 5 5 5 5 5 5 5 5 4 4
6 7 6 6 6 6 6 6 6 6 6 6 6 6 6 6 6 6 6 6 5 5 5 5 6 6 6 6 6 5 5 5 5 5 5 5 5 4 4 4 4 4 4
6 6 6 6 6 6 5 5 5 5 5 5 5 5 5 5 5 5 5 5 5 5 5 5 5 5 5 5 5 5 5 5 5 5 5 5 4 4 4 4 4 4 4
6 6 6 5 5 5 5 5 5 5 5 5 5 5 5 5 5 5 5 5 5 5 5 5 5 5 5 5 5 5 5 5 4 4 4 4 4 4 4 4 3 3 3
5 5 5 5 5 5 4 4 4 4 4 4 4 4 4 4 4 4 4 4 4 4 4 4 5 5 4 4 4 4 4 4 4 4 4 4 4 4 3 3 3 3 3
5 5 5 4 4 4 4 4 4 4 4 4 4 4 4 4 4 4 4 4 4 4 4 4 4 4 4 4 4 4 4 4 4 4 3 3 3 3 3 3 3 2 2
4 4 4 4 4 4 3 3 3 3 3 3 3 3 3 3 3 3 3 3 3 3 3 3 4 4 4 4 3 3 3 3 3 3 3 3 3 3 3 2 2 2 2
4 4 3 3 3 3 3 3 3 3 3 2 2 2 3 2 3 3 3 3 3 3 3 3 3 3 3 3 3 3 3 3 3 3 3 3 2 2 2 2 2 2 2
3 3 3 3 2 2 2 2 2 2 2 2 2 2 2 2 2 2 2 2 2 2 2 2 2 2 2 2 2 2 3 3 2 2 2 2 2 2 2 2 2 2 1
3 3 2 2 2 2 2 2 2 2 2 2 2 2 2 2 2 2 2 2 2 2 2 2 2 2 2 2 2 2 2 2 2 2 2 2 2 2 2 1 1 1 1
Wind_Speed
5 6 6 5 5 5 4 4 4 4 4 4 4 4 4 4 4 4 5 4 4 4 4 4 4 4 3 3 4 4 4 4 4 2 2 2 3 3 2 2 2 2 1
4 5 5 5 5 4 4 4 5 4 4 4 4 4 4 4 5 5 5 5 5 5 5 5 5 4 4 4 4 5 4 4 4 3 3 2 3 3 2 2 2 2 2
3 3 4 4 4 4 4 4 4 4 4 4 4 5 4 4 5 5 5 5 6 6 5 5 5 5 5 4 5 5 4 4 3 3 3 2 2 3 2 2 2 2 2
3 3 3 3 4 4 4 4 4 4 4 4 5 5 4 5 5 5 5 5 6 5 5 5 6 6 6 5 5 5 4 4 4 4 3 3 3 3 3 3 2 2 2
3 3 3 3 3 3 3 4 4 4 4 4 4 4 4 4 4 5 5 5 5 5 5 6 5 4 4 4 4 5 5 4 4 4 4 3 3 3 3 3 3 2 2
3 3 3 2 2 2 3 3 4 4 4 4 4 4 4 4 2 3 5 5 5 5 5 5 4 5 5 5 4 4 5 6 5 5 4 4 4 4 3 3 3 3 3
2 2 2 2 2 2 2 3 3 4 4 4 4 4 5 4 3 4 5 5 5 5 4 4 4 4 5 5 6 6 6 6 6 6 5 5 5 4 4 4 4 4 3
2 2 2 2 2 2 3 3 3 3 4 4 4 5 5 4 4 4 5 6 5 5 5 5 5 5 4 5 5 6 6 6 6 6 6 5 4 3 4 4 4 4 3
3 3 2 2 3 3 3 4 4 3 4 4 4 5 5 5 4 5 5 5 5 6 5 5 5 5 2 4 6 6 6 5 4 3 1 1 0 0 2 3 4 4 4
3 3 3 3 3 4 4 4 3 3 4 3 4 4 5 5 4 5 6 4 5 5 4 4 4 4 2 5 6 6 6 5 5 5 4 4 5 5 6 5 5 5 4
3 3 3 3 4 4 3 3 3 3 3 3 3 3 4 4 3 4 5 5 5 5 4 4 3 3 4 5 5 5 4 4 4 4 4 4 3 3 4 5 4 4 5
3 3 3 3 3 3 3 3 3 3 3 3 3 3 3 3 3 4 5 5 5 5 4 4 2 3 4 4 4 3 2 3 4 4 4 3 3 3 3 3 4 4 4
3 3 4 4 3 3 3 4 3 3 3 3 3 3 3 3 3 4 6 6 5 4 3 2 2 4 5 4 3 4 5 5 4 4 4 3 3 2 2 2 3 3 3
3 3 3 3 3 3 3 3 4 4 4 4 4 4 3 3 3 3 3 4 4 4 3 2 4 5 4 3 4 4 4 3 4 4 3 3 2 3 3 3 3 3 3
3 3 3 3 3 3 3 3 4 4 4 4 4 4 4 4 3 3 4 4 4 4 3 3 3 4 4 3 3 3 3 3 3 3 3 3 3 3 3 3 3 4 4
3 3 3 3 3 3 3 3 3 4 4 5 5 5 4 3 3 4 4 4 4 4 4 5 5 5 5 5 4 4 4 4 4 3 3 3 3 3 3 3 3 4 4
4 4 3 3 4 3 3 3 3 2 3 5 5 5 4 3 3 4 4 3 5 6 5 5 5 5 5 5 5 5 5 4 4 4 4 4 4 4 3 4 4 4 4
4 4 4 4 4 4 4 4 4 4 3 3 3 5 4 4 4 4 4 4 4 6 5 6 6 6 5 5 5 5 5 5 5 4 4 4 4 4 4 4 4 4 4
4 3 3 3 4 4 4 4 4 4 4 3 3 2 3 3 4 5 6 5 5 5 6 5 5 5 5 5 5 5 5 5 5 5 5 5 5 5 5 5 4 5 5
4 4 4 3 3 3 3 3 3 3 3 3 3 3 2 3 3 3 4 5 5 5 5 5 5 5 5 5 5 5 5 5 5 5 5 5 5 5 6 6 5 5 5
4 3 4 3 3 3 3 3 3 3 3 3 3 3 3 4 4 4 4 4 5 4 4 4 4 5 5 5 5 5 6 5 5 5 5 5 5 6 5 5 6 6 5
4 4 3 3 3 3 3 3 3 3 3 3 3 2 3 4 4 4 4 4 5 4 4 4 4 4 4 5 5 6 6 6 5 5 5 5 5 6 6 6 6 6 5
4 3 3 3 3 2 3 3 3 3 3 3 3 3 3 4 4 4 4 4 4 4 4 4 4 4 4 5 5 5 6 6 5 6 6 5 5 6 6 7 7 7 7
3 3 3 3 3 3 3 4 4 4 4 4 4 3 3 4 4 4 4 3 3 3 3 4 4 5 6 5 5 5 5 5 5 6 7 6 6 6 6 7 7 8 7
3 3 3 3 3 3 4 4 4 4 4 4 4 4 4 4 4 4 3 3 3 3 4 4 4 4 6 6 6 5 5 5 6 6 6 6 7 7 7 7 7 7 7
3 4 3 3 3 4 4 4 4 5 5 4 4 4 4 4 4 4 4 3 3 4 4 4 5 5 5 5 6 5 4 5 6 7 6 6 7 6 7 6 8 7 7
Wind_Direction
203 209 212 214 216 215 221 225 229 229 222 221 223 222 221 223 224 221 229 226 233 232 227 233 241 248 241 237 234 231 234 239 242 238 222 200 200 215 195 224 226 229 181
206 209 215 214 209 213 220 224 226 227 226 229 229 227 229 232 232 230 231 231 234 238 238 237 241 237 237 235 231 230 230 232 236 237 219 213 221 222 217 218 213 232 242
204 210 211 213 214 216 220 220 222 225 224 225 226 227 229 233 234 234 234 235 237 241 244 244 243 239 235 228 228 229 227 224 226 228 236 229 231 221 219 221 227 236 245
194 206 215 222 225 223 224 223 222 225 224 223 224 227 230 231 232 234 235 237 238 241 246 248 248 244 240 229 226 227 221 217 214 214 224 227 224 223 222 227 230 225 244
198 204 223 231 234 232 224 225 226 225 228 230 228 230 233 236 236 236 234 238 240 242 243 245 247 249 274 249 237 227 213 213 212 213 217 222 225 224 228 234 242 245 241
209 210 215 231 236 239 237 227 228 228 233 235 234 239 241 241 227 239 243 237 240 242 247 250 245 228 229 227 242 247 234 222 219 218 225 225 233 231 230 236 239 246 253
215 225 212 222 238 242 247 235 231 232 232 238 241 242 244 243 209 222 242 245 245 246 248 250 243 237 234 223 210 213 225 237 242 240 234 238 242 233 226 232 236 250 265
219 225 229 232 240 242 239 239 241 241 237 240 243 241 245 245 211 218 230 240 248 247 247 250 245 242 236 230 221 215 218 218 223 234 238 241 248 245 236 243 249 243 254
231 235 238 238 239 240 237 239 241 246 247 246 249 248 245 241 218 220 225 239 243 245 248 251 248 243 218 222 224 221 220 216 195 203 270 241 81 176 231 230 227 233 244
239 244 242 244 241 242 244 244 248 248 250 252 249 249 248 253 222 213 224 238 242 244 246 245 243 247 219 211 225 225 223 219 207 194 193 199 208 196 208 227 233 243 252
251 249 245 247 248 245 244 244 239 237 244 249 249 249 247 251 218 203 220 238 239 241 240 242 238 204 210 210 238 237 237 230 214 213 208 208 211 207 208 223 230 241 246
260 254 250 252 252 248 239 243 236 227 231 238 243 249 246 242 235 207 207 235 255 243 242 240 223 172 193 212 231 227 189 211 214 211 209 213 214 215 218 222 225 227 239
265 265 260 259 254 247 241 240 241 235 235 237 236 242 247 240 227 201 203 216 237 247 247 238 203 190 196 204 205 191 194 209 210 212 215 224 227 224 220 221 224 221 222
263 269 262 257 257 248 244 240 239 238 239 240 242 244 243 240 234 221 219 217 216 234 241 193 187 190 200 197 186 193 205 209 215 216 215 211 204 202 208 211 210 210 216
261 270 267 256 256 253 252 254 252 247 248 246 244 244 239 242 243 250 243 234 230 229 224 221 211 196 199 199 200 200 202 201 206 215 211 201 204 211 209 207 217 222 231
262 276 278 267 258 250 254 275 289 259 258 258 262 262 266 264 242 238 248 245 224 200 210 220 216 211 210 206 205 203 205 206 205 208 213 210 211 215 216 211 217 227 237
259 268 280 275 264 256 251 255 274 283 231 231 237 241 246 246 230 223 224 222 203 195 217 226 221 215 215 212 209 206 208 209 207 209 215 214 213 218 219 218 220 228 237
261 269 274 272 267 259 257 258 255 254 261 260 232 218 219 226 227 217 207 205 218 215 230 233 227 221 217 216 213 212 210 205 205 208 214 216 216 218 220 223 223 225 234
261 267 272 277 272 266 263 264 259 256 260 263 260 227 206 218 221 214 203 230 233 232 234 237 234 227 218 215 215 213 209 209 210 212 213 214 215 218 222 226 228 224 234
260 273 275 275 274 270 266 266 264 260 262 258 254 252 230 230 241 229 227 240 242 240 238 236 234 233 224 217 216 214 213 213 214 218 218 217 217 218 220 224 228 228 233
256 254 258 266 267 269 269 268 266 258 257 259 258 258 247 243 244 242 240 243 246 244 241 239 236 234 230 223 219 218 219 220 220 222 222 221 220 221 222 224 229 232 236
252 252 253 260 264 263 269 272 269 265 259 262 265 253 238 245 247 246 244 246 246 245 245 239 236 235 233 229 225 223 223 224 223 224 224 221 222 223 223 224 226 229 232
249 252 256 260 262 263 264 269 270 267 261 259 257 255 250 255 254 251 252 249 244 240 239 237 238 236 235 237 233 229 229 230 229 227 226 224 223 223 223 223 225 229 229
246 244 248 254 258 259 262 267 268 265 262 260 256 254 254 254 255 252 254 254 251 249 245 243 244 243 240 238 238 237 236 237 236 233 229 227 226 226 225 227 226 226 229
244 242 246 253 258 262 265 268 266 263 260 258 257 257 258 254 255 252 250 250 254 254 256 258 258 255 251 248 248 246 240 238 238 235 229 225 224 224 225 228 227 227 226
246 244 246 249 254 260 261 261 261 258 254 257 260 260 258 254 251 248 244 247 251 252 252 253 255 257 258 255 257 261 249 235 228 229 230 227 223 222 223 226 227 224 222
Height
1518 1519 1521 1522 1523 1524 1525 1525 1526 1526 1527 1527 1527 1527 1527 1527 1527 1527 1527 1527 1528 1528 1528 1528 1528 1528 1528 1528 1528 1529 1529 1530 1530 1530 1530 1530 1529 1529 1529 1529 1528 1527 1527
1515 1517 1518 1519 1520 1521 1521 1522 1523 1523 1524 1525 1525 1525 1525 1525 1525 1525 1525 1525 1525 1525 1525 1525 1526 1526 1526 1526 1526 1526 1527 1527 1528 1527 1528 1528 1528 1527 1527 1527 1526 1526 1525
1513 1514 1515 1516 1517 1517 1518 1519 1520 1520 1521 1521 1521 1522 1522 1522 1522 1522 1522 1522 1522 1522 1522 1523 1523 1523 1523 1523 1523 1524 1524 1524 1525 1525 1525 1525 1525 1525 1525 1525 1524 1524 1523
1510 1510 1512 1512 1513 1514 1515 1516 1517 1517 1517 1518 1518 1518 1518 1518 1518 1518 1518 1518 1518 1519 1519 1519 1519 1519 1520 1520 1520 1521 1521 1521 1522 1522 1523 1523 1523 1523 1523 1523 1522 1522 1521
1507 1508 1509 1510 1511 1511 1512 1512 1513 1514 1514 1515 1515 1515 1515 1515 1515 1515 1515 1515 1515 1515 1515 1515 1515 1515 1516 1516 1517 1517 1518 1518 1519 1519 1520 1520 1521 1520 1520 1520 1520 1520 1519
1505 1505 1506 1507 1507 1508 1508 1509 1510 1510 1511 1511 1511 1511 1511 1511 1511 1511 1511 1511 1511 1511 1511 1511 1511 1511 1512 1513 1513 1514 1515 1515 1516 1517 1517 1517 1518 1518 1517 1518 1518 1518 1518
1502 1503 1503 1503 1504 1505 1505 1506 1506 1507 1507 1507 1507 1507 1507 1507 1507 1507 1508 1508 1508 1508 1508 1508 1508 1508 1508 1509 1510 1510 1511 1512 1513 1514 1514 1514 1515 1515 1515 1515 1515 1515 1515
1500 1500 1500 1500 1501 1501 1502 1502 1502 1503 1503 1503 1503 1503 1503 1503 1504 1504 1504 1504 1504 1504 1504 1504 1504 1504 1505 1506 1506 1507 1508 1508 1509 1510 1511 1511 1511 1512 1512 1512 1512 1512 1512
1497 1497 1497 1497 1497 1498 1498 1498 1499 1499 1499 1499 1499 1499 1499 1499 1499 1500 1500 1500 1500 1500 1500 1500 1501 1501 1501 1502 1503 1503 1504 1504 1505 1505 1506 1507 1507 1508 1508 1508 1509 1509 1509
1493 1493 1493 1494 1494 1494 1494 1494 1494 1494 1494 1495 1495 1495 1495 1495 1495 1495 1496 1496 1496 1496 1496 1496 1497 1497 1497 1498 1499 1500 1500 1500 1501 1502 1502 1503 1503 1504 1504 1505 1505 1506 1506
1490 1490 1490 1490 1491 1491 1491 1491 1490 1490 1490 1490 1490 1491 1491 1491 1491 1491 1491 1492 1492 1492 1492 1492 1492 1493 1493 1494 1495 1496 1496 1497 1497 1498 1499 1499 1500 1500 1500 1501 1501 1502 1502
1486 1486 1486 1487 1487 1487 1487 1486 1486 1486 1486 1486 1486 1486 1486 1487 1487 1487 1487 1488 1488 1488 1488 1488 1488 1489 1489 1489 1490 1491 1492 1493 1494 1494 1495 1495 1496 1496 1497 1497 1497 1498 1498
1483 1482 1483 1483 1483 1483 1483 1482 1482 1483 1482 1482 1482 1482 1482 1482 1482 1483 1483 1483 1484 1484 1484 1484 1484 1485 1485 1485 1486 1486 1488 1489 1490 1490 1491 1491 1492 1492 1493 1493 1493 1494 1494
1480 1479 1479 1479 1479 1479 1479 1479 1479 1479 1479 1479 1479 1478 1478 1478 1478 1479 1479 1479 1479 1480 1480 1480 1480 1481 1481 1481 1482 1483 1484 1484 1485 1486 1486 1487 1487 1488 1488 1489 1489 1490 1490
1476 1476 1476 1475 1475 1475 1475 1474 1474 1474 1474 1474 1474 1474 1474 1474 1474 1474 1475 1475 1475 1476 1476 1476 1476 1477 1477 1478 1479 1479 1480 1481 1481 1482 1482 1483 1484 1484 1485 1485 1486 1486 1487
1473 1472 1472 1471 1471 1470 1470 1470 1469 1469 1469 1470 1470 1470 1470 1470 1470 1470 1470 1470 1471 1471 1472 1472 1472 1473 1473 1474 1474 1475 1476 1477 1477 1478 1479 1479 1480 1481 1481 1482 1482 1483 1483
1469 1468 1468 1467 1467 1466 1465 1465 1464 1464 1464 1465 1465 1465 1465 1466 1466 1466 1466 1466 1467 1467 1467 1468 1468 1468 1469 1470 1470 1471 1472 1473 1473 1474 1475 1476 1476 1477 1478 1478 1479 1479 1480
1465 1464 1464 1463 1463 1462 1461 1461 1460 1460 1460 1460 1460 1461 1461 1461 1461 1461 1462 1462 1462 1462 1463 1463 1463 1463 1464 1465 1466 1467 1467 1468 1469 1470 1471 1471 1472 1473 1474 1474 1475 1475 1476
1461 1460 1460 1459 1458 1458 1457 1457 1456 1456 1456 1455 1455 1456 1456 1456 1456 1457 1457 1457 1457 1458 1458 1458 1459 1459 1460 1460 1461 1462 1462 1463 1464 1465 1466 1467 1467 1468 1469 1470 1471 1471 1471
1457 1456 1456 1455 1454 1454 1453 1453 1452 1452 1452 1451 1452 1452 1451 1451 1451 1452 1452 1452 1453 1453 1453 1453 1454 1454 1455 1455 1456 1457 1458 1459 1460 1460 1461 1462 1463 1463 1464 1465 1466 1466 1467
1453 1452 1452 1451 1450 1450 1449 1449 1449 1448 1448 1447 1448 1448 1447 1447 1447 1447 1447 1447 1448 1448 1448 1449 1449 1449 1450 1451 1451 1452 1453 1453 1454 1455 1456 1457 1458 1458 1459 1460 1461 1461 1462
1449 1448 1448 1447 1447 1446 1446 1445 1445 1445 1444 1444 1444 1444 1443 1443 1443 1443 1443 1443 1443 1444 1444 1444 1444 1445 1445 1445 1446 1447 1447 1448 1449 1450 1451 1452 1452 1453 1454 1455 1456 1456 1457
1444 1444 1443 1443 1443 1442 1442 1442 1441 1441 1441 1440 1440 1440 1439 1439 1439 1439 1439 1439 1439 1439 1439 1440 1440 1440 1440 1441 1441 1442 1442 1443 1444 1445 1445 1446 1447 1448 1449 1450 1450 1451 1452
1440 1440 1439 1439 1439 1438 1438 1437 1437 1437 1437 1437 1436 1436 1436 1435 1435 1435 1435 1435 1435 1435 1435 1435 1435 1435 1436 1436 1436 1437 1437 1438 1439 1439 1440 1441 1442 1443 1444 1445 1445 1446 1447
1436 1436 1435 1435 1434 1434 1434 1433 1433 1433 1433 1432 1432 1432 1432 1431 1431 1431 1431 1431 1431 1431 1431 1431 1430 1431 1431 1431 1431 1432 1432 1433 1434 1434 1435 1436 1437 1437 1438 1439 1440 1441 1442
1433 1432 1431 1431 1431 1430 1430 1429 1429 1428 1428 1428 1428 1428 1428 1427 1427 1427 1427 1427 1427 1427 1427 1427 1426 1426 1426 1426 1427 1427 1427 1428 1428 1429 1430 1430 1431 1432 1433 1434 1435 1436 1437